Syracuse, NY
on Thursday, December 7, 2017

Thursday
       
Previous Day Next Day
Daily Summary
 ActualAverageRecord
Temperature
Mean Temperature °F °C 32°F 0°C  
Max Temperature 36°F 2°C 39°F 4°C 70°F 21°C (1998)
Min Temperature 28°F -2°C 26°F -3°C 2°F -16°C (1906)
Degree Days
Heating Degree Days 33 33  
Month to date heating degree days 192 220  
Since 1 July heating degree days 1389 1569  
Cooling Degree Days 0 0  
Month to date cooling degree days 0 0  
Year to date cooling degree days 562 569  
Moisture
Dew Point 23°F -5°C   
Average Humidity 69    
Maximum Humidity 85    
Minimum Humidity 52    
Precipitation
Precipitation T in / T cm 0.11 in / 2.79 cm 1.40 in / 3.56 cm (1959)
Month to date precipitation 0.24 0.80  
Year to date precipitation 43.88 36.05  
Snow
Snow T in / T cm 1.00 in / 2.54 cm 9.30 in / 23.62 cm (2010)
Month to date snowfall T 6.5  
Since 1 July snowfall 5.2 16.4  
Snow Depth 0.00 in / 0.00 cm   
Wind
Wind Speed 13 mph / 21 km/h   
Max Wind Speed 22 mph / 35 km/h   
Max Gust Speed 28 mph / 45 km/h   
Visibility 9 miles / 15 kilometers   
Events Snow   

Key: T is trace of precipitation, MM is missing value
Source: NWS Daily Summary
Time(EST)TemperatureDew PointHumidity Pressure Visibility Wind DirectionWind SpeedGust SpeedPrecipitationEvents Conditions
12:54 AM 35.1°F 1.7°C 23.0°F -5.0°C 61% 29.88 in / 1011.7 hPa 9.0 miles / 14.5 kilometers WSW 13.8 mph / 22.2 km/h - 0.00 in / 0.0 cm Snow Light Snow
1:54 AM 35.1°F 1.7°C 21.9°F -5.6°C 59% 29.90 in / 1012.3 hPa 10.0 miles / 16.1 kilometers WSW 15.0 mph / 24.1 km/h - 0.00 in / 0.0 cm   Overcast
2:54 AM 35.1°F 1.7°C 21.0°F -6.1°C 57% 29.91 in / 1012.7 hPa 10.0 miles / 16.1 kilometers West 13.8 mph / 22.2 km/h 23.0 mph / 37.0 km/h N/A   Overcast
3:54 AM 35.1°F 1.7°C 19.9°F -6.7°C 54% 29.90 in / 1012.4 hPa 10.0 miles / 16.1 kilometers WSW 16.1 mph / 25.9 km/h - N/A   Overcast
4:54 AM 34.0°F 1.1°C 21.0°F -6.1°C 59% 29.90 in / 1012.5 hPa 9.0 miles / 14.5 kilometers WSW 13.8 mph / 22.2 km/h - 0.00 in / 0.0 cm Snow Light Snow
5:54 AM 34.0°F 1.1°C 21.0°F -6.1°C 59% 29.92 in / 1013.0 hPa 9.0 miles / 14.5 kilometers WSW 12.7 mph / 20.4 km/h - 0.00 in / 0.0 cm Snow Light Snow
6:54 AM 34.0°F 1.1°C 21.9°F -5.6°C 61% 29.92 in / 1013.0 hPa 10.0 miles / 16.1 kilometers WSW 13.8 mph / 22.2 km/h - 0.00 in / 0.0 cm   Overcast
7:54 AM 33.1°F 0.6°C 21.9°F -5.6°C 64% 29.92 in / 1013.1 hPa 10.0 miles / 16.1 kilometers WSW 13.8 mph / 22.2 km/h - N/A   Overcast
8:54 AM 34.0°F 1.1°C 21.9°F -5.6°C 61% 29.93 in / 1013.5 hPa 10.0 miles / 16.1 kilometers SW 15.0 mph / 24.1 km/h - N/A   Overcast
9:54 AM 33.1°F 0.6°C 25.0°F -3.9°C 72% 29.95 in / 1014.1 hPa 8.0 miles / 12.9 kilometers WSW 11.5 mph / 18.5 km/h - 0.00 in / 0.0 cm Snow Light Snow
10:54 AM 32.0°F 0.0°C 27.0°F -2.8°C 82% 29.95 in / 1014.1 hPa 4.0 miles / 6.4 kilometers WSW 9.2 mph / 14.8 km/h - 0.00 in / 0.0 cm Snow Light Snow
11:54 AM 34.0°F 1.1°C 27.0°F -2.8°C 75% 29.93 in / 1013.3 hPa 10.0 miles / 16.1 kilometers WSW 9.2 mph / 14.8 km/h - 0.00 in / 0.0 cm   Overcast
12:54 PM 34.0°F 1.1°C 24.1°F -4.4°C 67% 29.91 in / 1012.6 hPa 10.0 miles / 16.1 kilometers WSW 10.4 mph / 16.7 km/h - N/A   Overcast
1:54 PM 34.0°F 1.1°C 23.0°F -5.0°C 64% 29.89 in / 1012.1 hPa 10.0 miles / 16.1 kilometers SW 12.7 mph / 20.4 km/h 23.0 mph / 37.0 km/h N/A   Overcast
2:54 PM 33.1°F 0.6°C 24.1°F -4.4°C 70% 29.89 in / 1012.0 hPa 10.0 miles / 16.1 kilometers SSW 11.5 mph / 18.5 km/h - N/A   Overcast
3:54 PM 33.1°F 0.6°C 24.1°F -4.4°C 70% 29.89 in / 1012.0 hPa 9.0 miles / 14.5 kilometers West 11.5 mph / 18.5 km/h - 0.00 in / 0.0 cm Snow Light Snow
4:54 PM 32.0°F 0.0°C 24.1°F -4.4°C 73% 29.90 in / 1012.5 hPa 10.0 miles / 16.1 kilometers West 13.8 mph / 22.2 km/h 20.7 mph / 33.3 km/h 0.00 in / 0.0 cm   Overcast
5:54 PM 30.0°F -1.1°C 26.1°F -3.3°C 85% 29.92 in / 1013.1 hPa 9.0 miles / 14.5 kilometers WSW 11.5 mph / 18.5 km/h - 0.00 in / 0.0 cm   Overcast
6:54 PM 28.9°F -1.7°C 23.0°F -5.0°C 78% 29.93 in / 1013.4 hPa 10.0 miles / 16.1 kilometers West 10.4 mph / 16.7 km/h - N/A   Mostly Cloudy
7:54 PM 30.0°F -1.1°C 21.9°F -5.6°C 72% 29.94 in / 1013.8 hPa 10.0 miles / 16.1 kilometers WSW 10.4 mph / 16.7 km/h - N/A   Overcast
8:54 PM 30.0°F -1.1°C 23.0°F -5.0°C 75% 29.96 in / 1014.3 hPa 10.0 miles / 16.1 kilometers WSW 11.5 mph / 18.5 km/h - N/A   Overcast
9:54 PM 30.0°F -1.1°C 21.0°F -6.1°C 69% 29.96 in / 1014.5 hPa 10.0 miles / 16.1 kilometers WSW 18.4 mph / 29.6 km/h 25.3 mph / 40.7 km/h N/A   Overcast
10:54 PM 28.9°F -1.7°C 19.0°F -7.2°C 67% 29.97 in / 1014.7 hPa 10.0 miles / 16.1 kilometers WSW 17.3 mph / 27.8 km/h - N/A   Mostly Cloudy
11:54 PM 28.0°F -2.2°C 19.9°F -6.7°C 72% 29.96 in / 1014.5 hPa 10.0 miles / 16.1 kilometers SW 15.0 mph / 24.1 km/h - N/A   Mostly Cloudy